Location: ??????????
(54.4061°N, 22.6114°E)
Time: 16:46:02
(UTC+00:00)

STARLINK-77 - Pass Details

Date: 23 October 2019
Orbit: 548 x 551 km, 53.0° (Epoch: 12 November)

Event Time Altitude Azimuth Distance (km) Brightness Sun altitude
Rises 15:56:34 0° 264° (W) 2,717 9.8 -6.8°
Reaches altitude 10° 15:58:48 10° 262° (W) 1,824 8.1 -7.1°
Maximum altitude 16:02:56 74° 178° (S) 575 3.7 -7.7°
Enters shadow 16:07:01 10° 93° (E) 1,806 5.6 -8.3°
